Погода в Михайловке

Россия / Кемеровская область (Кузбасс)     54°02′53″N   86°21′22″E
темп.,
°C
ветер,
м/с
пор.,
м/с
влажн.,
%
обл.,
%
осадки,
мм/ч
давл.,
гПа
погр.,
м
22 января, пт
пт2201:00−9ю2496100 0.1 1013139
04:00−8юв1197100 0.6 100935
07:00−7ссв0197100 2.2 100621
10:00−7з1496100 1.8 1007192
13:00−9з4793100 2.3 1010505
16:00−11з3592100 0.1 1014463
19:00−14зюз2596100 0.1 1018225
22:00−16з3695100 0.0 1021231
23 января, сб
сб2301:00−18зюз3795100 0.0 1025243
04:00−21юз3797100 0.0 1028259
07:00−24юз51097100 0.0 1031318
10:00−23юз51195100 0.1 1033384
13:00−21юз51294100 0.1 1033425
16:00−18юз41192100 0.1 1033626
19:00−19ююз4996100 0.1 1034404
22:00−18ююз41194100 0.1 1034531
24 января, вс
вс2401:00−18ююз3995100 0.1 1033484
04:00−17ююз41194100 0.1 1033652
07:00−16юз41194100 0.4 1032674
10:00−15ююз41093100 0.2 1032740
13:00−14юз5990100 0.4 1032925
16:00−16зюз4991100 0.3 1032927
19:00−20з3795100 0.4 1036426
22:00−26з2499100 0.0 103984
25 января, пн
пн2501:00−29зюз2498100 0.0 1042107
04:00−30юз2597100 0.0 1045178
07:00−32юз3696100 0.1 1046252
10:00−34юз259899 0.0 1048149
13:00−31юз359699 0.0 1048314
16:00−30юз2496100 0.0 1047308
19:00−35юз229989 0.0 104821
22:00−37юз129837 0.0 104819
26 января, вт
вт2601:00−37ююз119924 0.0 104719
04:00−37ю11991 0.0 104719
07:00−37ю111005 0.0 104619
10:00−36юв11980 0.0 104619
13:00−28в11935 0.0 1045203
16:00−28св119783 0.0 1045152
19:00−36ссв1210061 0.0 104719
22:00−37ссв111003 0.0 104819